DW9246 Weather Reports


Display with metric or nautical units.
time (UTC)temp
F
wind
direction
speed
MPH
gust
MPH
rain 1hr
in
rain 24hr
in
rain mn
in
humidity
%
barometer
mb
20260831115015 82 167 7.0 13.0 0.00 0.00 0.00 67 1020.7
20260831113015 82 154 7.0 11.0 0.00 0.00 0.00 67 1020.8
20260831112016 81 177 8.0 15.0 0.00 0.00 0.00 66 1020.8
20260831110026 82 156 6.0 11.0 0.00 0.00 0.00 66 1020.8
20260831105014 82 147 6.0 12.0 0.00 0.00 0.00 68 1020.7
20260831103016 83 130 3.0 7.0 0.00 0.00 0.00 62 1020.7
20260831102017 82 140 5.0 12.0 0.00 0.00 0.00 63 1020.7
20260831101019 82 130 6.0 11.0 0.00 0.00 0.00 64 1020.7
20260831100018 82 116 4.0 11.0 0.00 0.00 0.00 64 1020.7
20260831095016 81 94 6.0 14.0 0.00 0.00 0.00 65 1020.6
20260831094018 81 99 4.0 12.0 0.00 0.00 0.00 65 1020.6
20260831092015 80 106 5.0 11.0 0.00 0.00 0.00 67 1020.5
20260831091016 80 120 5.0 11.0 0.00 0.00 0.00 67 1020.5
20260831085023 79 92 5.0 10.0 0.00 0.00 0.00 68 1020.5
20260831083014 78 109 3.0 9.0 0.00 0.00 0.00 70 1020.3
20260831082015 78 129 3.0 7.0 0.00 0.00 0.00 71 1020.3
20260831081022 77 108 3.0 10.0 0.00 0.00 0.00 72 1020.3
20260831080016 77 125 2.0 7.0 0.00 0.00 0.00 71 1020.2
20260831073015 74 255 2.0 4.0 0.00 0.00 0.00 71 1020.1
20260831072014 74 254 2.0 5.0 0.00 0.00 0.00 72 1020.0
20260831070016 73 48 2.0 4.0 0.00 0.00 0.00 75 1020.0
20260831065021 72 47 0.0 3.0 0.00 0.00 0.00 77 1020.0
20260831064018 71 0 0.0 0.0 0.00 0.00 0.00 78 1020.0
20260831063016 70 0 0.0 0.0 0.00 0.00 0.00 79 1019.8
20260831060017 69 48 1.0 3.0 0.00 0.00 0.00 80 1019.2
20260831055016 69 48 1.0 3.0 0.00 0.00 0.00 79 1019.1
20260831054016 69 47 1.0 3.0 0.00 0.00 0.00 79 1018.9
20260831053016 69 2 2.0 4.0 0.00 0.00 0.00 80 1018.8
20260831052015 69 354 2.0 4.0 0.00 0.00 0.00 80 1018.7
20260831050017 69 263 2.0 5.0 0.00 0.00 0.00 79 1018.6
20260831045014 69 263 2.0 4.0 0.00 0.00 0.00 80 1018.6
20260831044018 69 267 2.0 4.0 0.00 0.00 0.00 81 1018.5
20260831043016 69 302 3.0 5.0 0.00 0.00 0.00 82 1018.5
20260831041017 70 307 3.0 4.0 0.00 0.00 0.00 83 1018.5
20260831040018 70 308 2.0 4.0 0.00 0.00 0.00 83 1018.5
20260831035014 70 308 2.0 4.0 0.00 0.00 0.00 83 1018.6
20260831034016 70 308 2.0 3.0 0.00 0.00 0.00 83 1018.6
20260831033015 69 308 2.0 3.0 0.00 0.00 0.00 82 1018.5
20260831031016 70 308 2.0 4.0 0.00 0.00 0.00 81 1018.5
20260831030016 70 308 3.0 4.0 0.00 0.00 0.00 81 1018.5
20260831024014 71 307 3.0 7.0 0.00 0.00 0.00 81 1018.5
20260831023014 71 308 4.0 7.0 0.00 0.00 0.00 81 1018.3
20260831022014 70 308 3.0 5.0 0.00 0.00 0.00 81 1018.4
20260831021014 71 308 4.0 7.0 0.00 0.00 0.00 81 1018.5
20260831020018 70 308 4.0 7.0 0.00 0.00 0.00 81 1018.6
20260831015015 70 308 4.0 7.0 0.00 0.00 0.00 81 1018.6
20260831014014 70 308 4.0 7.0 0.00 0.00 0.00 81 1018.4
20260831013016 70 308 4.0 7.0 0.00 0.00 0.00 82 1018.5
20260831012013 70 308 3.0 7.0 0.00 0.00 0.00 81 1018.5
20260831010015 70 308 3.0 5.0 0.00 0.00 0.00 80 1018.5
20260831004015 69 308 3.0 5.0 0.00 0.00 0.00 80 1018.5
20260831003013 70 308 3.0 4.0 0.00 0.00 0.00 80 1018.5
20260831002016 70 308 3.0 4.0 0.00 0.00 0.00 80 1018.6
20260831001015 69 308 3.0 5.0 0.00 0.00 0.00 79 1018.6
20260831000018 69 308 3.0 4.0 0.00 0.00 0.00 79 1018.6
20260830235015 69 308 2.0 4.0 0.00 0.00 0.00 79 1018.6
20260830234014 69 308 2.0 4.0 0.00 0.00 0.00 80 1018.6
20260830233018 69 308 3.0 5.0 0.00 0.00 0.00 81 1018.5
20260830232015 70 308 2.0 4.0 0.00 0.00 0.00 82 1018.6
20260830231014 70 308 2.0 4.0 0.00 0.00 0.00 82 1018.5
20260830223015 70 308 2.0 3.0 0.00 0.00 0.00 80 1018.6
20260830222015 70 308 2.0 4.0 0.00 0.00 0.00 80 1018.7
20260830221014 70 308 3.0 5.0 0.00 0.00 0.00 79 1018.6
20260830220017 70 308 3.0 4.0 0.00 0.00 0.00 78 1018.6
20260830214019 70 305 2.0 4.0 0.00 0.00 0.00 77 1018.6
20260830212014 72 284 2.0 4.0 0.00 0.00 0.00 79 1018.4
20260830211014 72 284 2.0 4.0 0.00 0.00 0.00 80 1018.5
20260830210018 73 284 3.0 6.0 0.00 0.00 0.00 80 1018.6
20260830205015 73 275 3.0 6.0 0.00 0.00 0.00 80 1018.4
20260830204016 73 275 3.0 7.0 0.00 0.00 0.00 80 1018.4
20260830203017 73 268 3.0 6.0 0.00 0.00 0.00 80 1018.3
20260830201014 73 296 3.0 7.0 0.00 0.00 0.00 79 1018.1
20260830200019 73 292 4.0 7.0 0.00 0.00 0.00 79 1018.1
20260830195018 73 289 4.0 8.0 0.00 0.00 0.00 79 1018.1
20260830194015 73 290 2.0 6.0 0.00 0.00 0.00 78 1018.0
20260830193014 74 290 3.0 6.0 0.00 0.00 0.00 78 1018.0
20260830192014 74 290 2.0 4.0 0.00 0.00 0.00 78 1018.0
20260830191015 74 287 2.0 5.0 0.00 0.00 0.00 76 1017.9
20260830190016 75 235 2.0 4.0 0.00 0.00 0.00 76 1017.8
20260830185016 75 235 1.0 3.0 0.00 0.00 0.00 72 1017.8
20260830184014 76 235 1.0 2.0 0.00 0.00 0.00 69 1017.7
20260830182012 78 235 1.0 4.0 0.00 0.00 0.00 67 1017.6
20260830181016 78 250 3.0 5.0 0.00 0.00 0.00 66 1017.7
20260830180015 79 235 3.0 7.0 0.00 0.00 0.00 65 1017.5
20260830175017 79 227 4.0 6.0 0.00 0.00 0.00 64 1017.5
20260830174016 80 212 4.0 7.0 0.00 0.00 0.00 61 1017.5
20260830173013 80 198 4.0 8.0 0.00 0.00 0.00 61 1017.5
20260830172014 80 204 4.0 9.0 0.00 0.00 0.00 62 1017.5
20260830171013 80 221 3.0 6.0 0.00 0.00 0.00 57 1017.4
20260830170016 80 236 4.0 9.0 0.00 0.00 0.00 56 1017.5
20260830165015 81 223 4.0 9.0 0.00 0.00 0.00 60 1017.4
20260830164015 80 206 7.0 14.0 0.00 0.00 0.00 56 1017.5
20260830162015 81 204 7.0 13.0 0.00 0.00 0.00 55 1017.5
20260830160015 81 190 8.0 14.0 0.00 0.00 0.00 58 1017.5
20260830154014 82 196 7.0 13.0 0.00 0.00 0.00 57 1017.5
20260830153015 82 207 6.0 11.0 0.00 0.00 0.00 55 1017.6
20260830152014 83 209 6.0 15.0 0.00 0.00 0.00 53 1017.7
20260830151015 82 196 7.0 14.0 0.00 0.00 0.00 56 1017.6
20260830150013 82 199 7.0 11.0 0.00 0.00 0.00 53 1017.7
20260830145012 83 189 6.0 16.0 0.00 0.00 0.00 52 1017.7
20260830144014 83 199 6.0 12.0 0.00 0.00 0.00 47 1017.8
20260830143013 83 207 7.0 12.0 0.00 0.00 0.00 49 1017.9
20260830142013 83 210 6.0 12.0 0.00 0.00 0.00 52 1017.9
20260830141012 83 201 7.0 13.0 0.00 0.00 0.00 49 1018.1
20260830140019 82 200 9.0 15.0 0.00 0.00 0.00 54 1018.1
20260830135013 82 194 8.0 15.0 0.00 0.00 0.00 56 1018.3
20260830134013 82 186 8.0 16.0 0.00 0.00 0.00 56 1018.4
20260830133012 83 181 8.0 14.0 0.00 0.00 0.00 58 1018.5
20260830132014 83 187 7.0 13.0 0.00 0.00 0.00 54 1018.6
20260830131013 83 188 7.0 12.0 0.00 0.00 0.00 53 1018.7
20260830130014 83 203 5.0 12.0 0.00 0.00 0.00 60 1018.8
20260830125015 82 195 6.0 13.0 0.00 0.00 0.00 59 1018.9
20260830124014 82 213 6.0 11.0 0.00 0.00 0.00 61 1019.0
20260830123017 81 176 7.0 13.0 0.00 0.00 0.00 62 1018.9
20260830120019 81 179 6.0 13.0 0.00 0.00 0.00 63 1019.2